Weather in Andriivka

Ukraine / Kharkiv Region     49°13′42″N   35°39′02″E
temp.,
°C
wind,
m/s
gust,
m/s
humid.,
%
clouds,
%
prec.,
mm/h
press.,
hPa
HPBL,
m
18 may, tue
tue1800:00+15sse3496100 5.1 100689
03:00+15sse3497100 5.1 1005107
06:00+15s3596100 1.1 1005201
09:00+17ssw4683100 1.8 1005614
12:00+19ssw6671100 1.0 10051160
15:00+20s686235 1.4 10041470
18:00+18s610757 1.3 1003669
21:00+14s4109270 2.7 1004383
19 may, wed
wed1900:00+13sse6129646 0.0 1004474
03:00+12sse41098100 0.0 1004346
06:00+12sse499598 0.0 1005368
09:00+15sse577995 0.0 1005729
12:00+16sse6873100 0.1 1005798
15:00+17se5565100 0.4 10051166
18:00+17sse3470100 0.7 1004542
21:00+13ssw3486100 2.1 100461
20 may, thu
thu2000:00+12s3692100 0.3 1004115
03:00+11sw599999 0.3 1005306
06:00+12sw5893100 0.0 1006721
09:00+12sw6994100 0.1 1008621
12:00+12wsw5989100 0.1 1010713
15:00+17w596695 0.3 10101271
18:00+17nw576927 0.1 1011808
21:00+12nnw018446 0.1 101310
21 may, fri
fri2100:00+13n2384100 0.0 101486
03:00+11ne3584100 0.0 1014126
06:00+11ne4786100 0.0 1014187
09:00+15ene6869100 0.0 1014443
12:00+19ene7964100 0.0 1013878
15:00+18ene61074100 0.1 1012722
18:00+19ene71176100 0.0 1011536
21:00+16ne61287100 0.4 1011289
22 may, sat
sat2200:00+15ne6119030 0.1 1010243
03:00+14ne61493100 0.5 1010342
06:00+14ne6109295 0.0 1009293
09:00+17e478399 0.1 1009430
12:00+23ene3462100 0.0 1010973
15:00+24ne4460100 0.0 10091144
18:00+23ne3470100 0.0 1009251
21:00+19nne3384100 0.0 100938